This is the latest recevied weather packets stored in our database for station/object W5ADC. If no packets are shown the sender has not sent any weather packets the latest 10 day(s).
| Time | Temp. | Humidity | Pressure | Rain* | Wind** | Luminosity | Snow |
|---|---|---|---|---|---|---|---|
| 1777468265 | 15.56° C | 82% | 1011.5 hPa | 0 mm | - | 23 W/m² | - |
| 1777467961 | 15.56° C | 82% | 1011.6 hPa | 0 mm | - | 22 W/m² | - |
| 1777467657 | 15.56° C | 82% | 1011.6 hPa | 0 mm | - | 21 W/m² | - |
| 1777467353 | 15.56° C | 82% | 1011.3 hPa | 0 mm | - | 22 W/m² | - |
| 1777467049 | 15.56° C | 82% | 1011.4 hPa | 0 mm | - | 15 W/m² | - |
| 1777466746 | 15.56° C | 82% | 1011.5 hPa | 0 mm | - | 11 W/m² | - |
| 1777466444 | 15.56° C | 82% | 1011.6 hPa | 0 mm | - | 11 W/m² | - |
| 1777466139 | 15.56° C | 82% | 1011.4 hPa | 0 mm | - | 7 W/m² | - |
| 1777465836 | 15.56° C | 82% | 1011.3 hPa | 0 mm | - | 9 W/m² | - |
| 1777465532 | 15.56° C | 82% | 1010.9 hPa | 0 mm | - | 9 W/m² | - |
| 1777465227 | 15.56° C | 81% | 1010.7 hPa | 0 mm | - | 9 W/m² | - |
| 1777464922 | 15.56° C | 81% | 1010.5 hPa | 0 mm | - | 9 W/m² | - |
| 1777464617 | 15.56° C | 80% | 1010.4 hPa | 0 mm | - | 8 W/m² | - |
| 1777464313 | 15.56° C | 80% | 1010.6 hPa | 0 mm | - | 6 W/m² | - |
| 1777464009 | 15.56° C | 80% | 1010.4 hPa | 0 mm | - | 6 W/m² | - |
| 1777463704 | 15.56° C | 80% | 1010.4 hPa | 0 mm | - | 4 W/m² | - |
| 1777463399 | 16.11° C | 79% | 1010.1 hPa | 0 mm | - | 2 W/m² | - |
| 1777463095 | 16.11° C | 79% | 1010.2 hPa | 0 mm | - | 1 W/m² | - |
| 1777462791 | 16.11° C | 79% | 1010.3 hPa | 0 mm | - | 1 W/m² | - |
| 1777462486 | 16.11° C | 78% | 1010.3 hPa | 0 mm | - | 0 W/m² | - |
| 1777462183 | 16.11° C | 78% | 1010.3 hPa | 0 mm | - | 0 W/m² | - |
| 1777461880 | 16.11° C | 77% | 1010.5 hPa | 0 mm | - | 0 W/m² | - |
| 1777461577 | 16.67° C | 77% | 1010.3 hPa | 0 mm | - | 0 W/m² | - |
| 1777461272 | 16.67° C | 77% | 1010.4 hPa | 0 mm | - | 0 W/m² | - |
| 1777460967 | 16.67° C | 76% | 1009.9 hPa | 0 mm | - | 0 W/m² | - |
* Rain latest hour (hover to see other rain measurements)
** Current wind speed in m/s (hover to see current wind gust speed)